Location: Fuglau
(48.6333°N, 15.5500°E)
Time: 18:23:02
(UTC+00:00)

H-2A R/B - Pass Details

Date: 27 February 2020
Orbit: 733 x 837 km, 98.2° (Epoch: 01 April)

Event Time Altitude Azimuth Distance (km) Brightness Sun altitude
Exits shadow 18:23:02 - 163° (SSE) 3,288 5.0 -18.2°
Reaches altitude 10° 18:25:13 10° 163° (SSE) 2,425 4.3 -18.5°
Maximum altitude 18:30:38 87° 76° (ENE) 844 2.1 -19.4°
Drops below altitude 10° 18:36:08 10° 347° (NNW) 2,463 4.9 -20.3°
Sets 18:38:31 0° 347° (NNW) 3,400 5.7 -20.7°
